Flag for United Kingdom Weather past 2 weeks in Cheltenham, England, United Kingdom

Now
45 °F

Cool.


Feels Like: 39 °F
Forecast: N/A
Wind: 12 mph from Southwest

Location: Little Rissington

Current Time: Jan 25, 2015 at 11:09:35 PM

Latest Report: Jan 25, 2015 at 10:00 PM


Visibility: 4 mi

Pressure: 30.27 "Hg

Humidity: 100%

Dew point: 45 °F

Location of CheltenhamLocation

Historic Weather in Cheltenham — Graph

°F

Cheltenham temperature yesterday

Maximum temperature yesterday: 44 °F (at 12:00 AM)
Minimum temperature yesterday: 34 °F (at 8:00 AM)
Average temperature yesterday: 38 °F

Past Weeks' High & Low Weather Summary

 TemperatureHumidityPressure
High50 °F (Jan 12, 11:00 PM)100% (Jan 12, 11:00 AM)30.49 "Hg (Jan 12, 11:00 AM)
Low25 °F (Jan 23, 8:00 AM)71% (Jan 11, 12:00 PM)29.03 "Hg (Jan 15, 2:00 AM)
Average36 °F92%29.87 "Hg
* Reported Jan 10 9:00 PM — Jan 25 9:00 PM, Cheltenham, Weather by CustomWeather, © 2014

Note: Actual official high and low records may vary slightly from our data, if they occured in-between our weather recording intervals... More about our weather records

Advertising

Cheltenham weather history for previous 24 hours

 ConditionsComfort  
Time TempWeatherWind HumidityBarometerVisibility
9:00 PM
Jan 25
44 °FQuite cool.8 mph100%30.29 "Hg1 mi
8:00 PM44 °FQuite cool.20 mph100%30.30 "Hg1 mi
7:00 PM43 °FQuite cool.15 mph99%30.32 "Hg2 mi
6:00 PM43 °FQuite cool.21 mph97%30.33 "Hg6 mi
5:00 PM43 °FQuite cool.17 mph96%30.34 "Hg6 mi
4:00 PM44 °FQuite cool.15 mph92%30.34 "Hg10 mi
3:00 PM46 °FCool.14 mph86%30.34 "Hg11 mi
2:00 PM42 °FQuite cool.15 mph90%30.36 "Hg9 mi
1:00 PM41 °FQuite cool.17 mph91%30.39 "Hg9 mi
12:00 PM40 °FQuite cool.16 mph88%30.40 "Hg9 mi
11:00 AM38 °FChilly.14 mph93%30.43 "Hg8 mi
10:00 AM36 °FChilly.6 mph94%30.44 "Hg7 mi
9:00 AM34 °FChilly.6 mph96%30.45 "Hg6 mi
8:00 AM34 °FChilly.8 mph97%30.45 "Hg6 mi
7:00 AM33 °FChilly.7 mph96%30.47 "Hg5 mi
6:00 AM31 °FChilly.8 mph94%30.47 "Hg7 mi
5:00 AM33 °FChilly.7 mph91%30.47 "Hg8 mi
4:00 AM33 °FChilly.5 mph90%30.47 "Hg8 mi
2:00 AM34 °FChilly.6 mph90%30.47 "Hg8 mi
1:00 AM33 °FChilly.7 mph92%30.47 "Hg7 mi
12:00 AM34 °FChilly.9 mph90%30.47 "Hg7 mi
11:00 PM
Jan 24
35 °FChilly.8 mph90%30.49 "Hg7 mi
Weather by CustomWeather, © 2014

See weather overviewHow to use our weather pages